Flag for Belarus Weather past 2 weeks in Minsk, Belarus

Now
23 °F

Clear.


Feels Like: 23 °F
Forecast: 16 / 31 °F
Wind: No wind

Location: Minsk

Current Time: Feb 2, 2015 at 3:37:12 AM

Latest Report: Feb 2, 2015 at 3:00 AM


Visibility: 5 mi

Pressure: 29.33 "Hg

Humidity: 100%

Dew point: 23 °F

Location of MinskLocation

Historic Weather in Minsk — Graph

°F

Minsk temperature yesterday

Maximum temperature yesterday: 34 °F (at 2:30 PM)
Minimum temperature yesterday: 28 °F (at 8:30 AM)
Average temperature yesterday: 32 °F

Past Weeks' High & Low Weather Summary

 TemperatureHumidityPressure
High39 °F (Jan 31, 8:02 PM)100% (Jan 18, 3:30 AM)30.24 "Hg (Jan 18, 3:30 AM)
Low19 °F (Jan 25, 9:30 PM)69% (Jan 20, 2:00 PM)28.80 "Hg (Jan 31, 7:00 PM)
Average30 °F97%29.86 "Hg
* Reported Jan 18 2:00 AM — Feb 2 2:30 AM, Minsk, Weather by CustomWeather, © 2014

Note: Actual official high and low records may vary slightly from our data, if they occured in-between our weather recording intervals... More about our weather records

Advertising

Minsk weather history for previous 24 hours

 ConditionsComfort  
Time TempWeatherWind HumidityBarometerVisibility
2:30 AM
Feb 2
23 °FClear.No wind100%29.33 "Hg4 mi
2:00 AM25 °FClear.No wind100%29.33 "Hg4 mi
1:30 AM25 °FClear.No wind100%29.33 "Hg5 mi
1:00 AM27 °FClear.No wind93%29.33 "Hg10 mi
12:00 AM28 °FClear.1 mph93%29.33 "Hg10 mi
11:30 PM
Feb 1
28 °FClear.1 mph93%29.33 "Hg10 mi
11:00 PM28 °FClear.3 mph93%29.33 "Hg10 mi
10:30 PM30 °FClear.3 mph86%29.33 "Hg10 mi
10:00 PM30 °FPassing clouds.3 mph86%29.33 "HgN/A
9:30 PM32 °FPassing clouds.3 mph80%29.33 "HgN/A
9:00 PM32 °FClear.3 mph80%29.33 "Hg10 mi
8:30 PM32 °FClear.3 mph80%29.33 "Hg10 mi
8:00 PM32 °FClear.3 mph87%29.30 "Hg10 mi
7:30 PM32 °FPassing clouds.3 mph87%29.30 "HgN/A
7:00 PM34 °FPassing clouds.6 mph81%29.30 "HgN/A
6:30 PM34 °FPassing clouds.6 mph81%29.30 "HgN/A
6:00 PM34 °FScattered clouds.6 mph81%29.30 "HgN/A
5:30 PM34 °FScattered clouds.3 mph87%29.30 "HgN/A
5:00 PM34 °FPartly sunny.6 mph87%29.27 "HgN/A
4:30 PM34 °FPartly sunny.6 mph81%29.27 "HgN/A
4:00 PM34 °FPartly sunny.6 mph81%29.27 "HgN/A
3:30 PM34 °FPartly sunny.6 mph81%29.27 "HgN/A
3:00 PM34 °FPartly sunny.8 mph87%29.27 "HgN/A
2:30 PM34 °FLight snow. Partly sunny.8 mph87%29.27 "HgN/A
2:00 PM32 °FPartly sunny.6 mph93%29.27 "HgN/A
1:30 PM32 °FPartly sunny.8 mph93%29.27 "HgN/A
1:00 PM32 °FPartly sunny.6 mph93%29.27 "HgN/A
12:30 PM32 °FSnow flurries. Partly sunny.8 mph93%29.24 "Hg4 mi
12:00 PM32 °FPartly sunny.8 mph87%29.24 "HgN/A
11:30 AM32 °FPartly sunny.8 mph87%29.24 "HgN/A
11:00 AM30 °FLight snow. Partly sunny.10 mph93%29.21 "HgN/A
10:30 AM30 °FPartly sunny.8 mph93%29.21 "HgN/A
10:00 AM30 °FPartly sunny.8 mph86%29.18 "HgN/A
9:30 AM28 °FPartly cloudy.6 mph93%29.18 "HgN/A
9:00 AM28 °FPartly cloudy.8 mph93%29.18 "HgN/A
8:30 AM28 °FPassing clouds.8 mph93%29.15 "HgN/A
8:00 AM30 °FPassing clouds.8 mph86%29.15 "HgN/A
7:30 AM30 °FOvercast.10 mph86%29.12 "HgN/A
6:30 AM32 °FOvercast.8 mph87%29.12 "HgN/A
6:00 AM32 °FOvercast.8 mph93%29.09 "HgN/A
5:30 AM32 °FOvercast.10 mph93%29.06 "HgN/A
5:00 AM32 °FOvercast.8 mph93%29.06 "HgN/A
4:30 AM32 °FOvercast.8 mph93%29.06 "HgN/A
4:00 AM32 °FOvercast.8 mph93%29.03 "HgN/A
3:30 AM32 °FOvercast.8 mph93%29.03 "HgN/A
3:00 AM32 °FOvercast.8 mph93%29.00 "HgN/A
Weather by CustomWeather, © 2014

See weather overviewHow to use our weather pages